SAULDORF Weather Reports


time (UTC)temp
F
wind
direction
speed
knots
gust
knots
rain 1hr
in
rain 24hr
in
rain mn
in
humidity
%
barometer
mb
20260507180210 56 39 4.3 0.0 0.00 0.00 0.17 68 1014.7
20260507173210 58 31 7.8 0.0 0.00 0.00 0.17 64 1014.6
20260507170210 60 35 8.7 0.0 0.00 0.00 0.17 64 1014.5
20260507163209 60 24 10.4 0.0 0.00 0.00 0.17 63 1014.5
20260507160211 59 5 8.7 0.0 0.00 0.00 0.17 67 1014.5
20260507153210 58 348 9.6 0.0 0.00 0.00 0.17 70 1014.5
20260507150210 59 313 9.6 0.0 0.00 0.00 0.17 67 1014.5
20260507143212 59 42 7.8 0.0 0.00 0.00 0.17 72 1014.4
20260507140210 57 13 7.8 0.0 0.00 0.00 0.17 78 1014.5
20260507133210 56 30 7.8 0.0 0.00 0.00 0.17 83 1014.7
20260507130210 54 315 9.6 0.0 0.00 0.00 0.17 90 1014.7
20260507123210 53 321 6.1 0.0 0.00 0.00 0.17 89 1014.8
20260507120211 52 340 7.8 0.0 0.00 0.00 0.17 92 1014.5
20260507113210 50 279 6.1 0.0 0.00 0.00 0.17 91 1014.6
20260507110210 51 286 4.3 0.0 0.00 0.00 0.15 88 1014.6
20260507103216 52 225 8.7 0.0 0.00 0.00 0.06 89 1014.4
20260507100212 50 199 5.2 0.0 0.00 0.00 0.06 91 1014.4
20260507093211 50 211 7.8 0.0 0.00 0.00 0.06 88 1014.2
20260507090211 51 232 9.6 0.0 0.00 0.00 0.06 89 1013.9
20260507083212 50 223 8.7 0.0 0.00 0.00 0.06 93 1013.8
20260507080211 49 217 12.2 0.0 0.00 0.00 0.06 96 1013.6
20260507073212 48 247 11.3 0.0 0.00 0.00 0.06 97 1013.5
20260507070212 47 223 10.4 0.0 0.00 0.00 0.06 97 1013.3
20260507063211 46 236 12.2 0.0 0.00 0.00 0.06 97 1013.2
20260507060211 45 230 12.2 0.0 0.00 0.00 0.05 97 1012.9
20260507053211 45 229 11.3 0.0 0.00 0.00 0.05 97 1012.6
20260507050213 44 228 10.4 0.0 0.00 0.00 0.04 97 1012.2
20260507043211 44 237 11.3 0.0 0.00 0.00 0.02 97 1012.0
20260507040216 44 268 9.6 0.0 0.00 0.00 0.00 97 1011.7
20260507033211 44 241 12.2 0.0 0.00 0.00 0.00 96 1011.5
20260507030211 44 220 9.6 0.0 0.00 0.00 0.00 96 1011.5
20260507023211 44 215 9.6 0.0 0.00 0.00 0.00 96 1011.2
20260507020211 44 240 11.3 0.0 0.00 0.00 0.00 96 1011.0
20260507013212 43 236 7.0 0.0 0.00 0.00 0.00 96 1011.2
20260507010211 42 211 6.1 0.0 0.00 0.00 0.00 95 1011.0
20260507003209 42 214 5.2 0.0 0.00 0.00 0.00 95 1010.8
20260507000209 43 227 7.8 0.0 0.00 0.00 0.00 94 1010.7
20260506233209 44 247 10.4 0.0 0.00 0.00 0.00 95 1010.5
20260506230209 44 236 9.6 0.0 0.00 0.00 0.00 95 1010.5
20260506223209 44 234 8.7 0.0 0.00 0.00 0.00 95 1010.4
20260506220209 45 253 9.6 0.0 0.00 0.00 0.00 95 1010.1
20260506213209 45 221 5.2 0.0 0.00 0.00 0.29 95 1010.3
20260506210210 45 240 11.3 0.0 0.00 0.00 0.29 94 1010.2
20260506203210 46 244 13.0 0.0 0.00 0.00 0.29 94 1009.8
20260506200210 47 225 10.4 0.0 0.00 0.00 0.29 94 1010.0
20260506193215 46 223 13.0 0.0 0.00 0.00 0.29 93 1009.7
20260506190211 47 217 13.0 0.0 0.00 0.00 0.29 92 1009.2
20260506183209 47 221 13.0 0.0 0.00 0.00 0.29 90 1008.9